Location: Erdweis
(48.5167°N, 15.3500°E)
Time: 10:18:51
(UTC+00:00)

Cosmos 2227 - Pass Details

Date: 18 September 2020
Orbit: 836 x 859 km, 71.0° (Epoch: 24 October)

Event Time Altitude Azimuth Distance (km) Brightness Sun altitude
Rises 17:57:52 0° 207° (SSW) 3,420 7.5 -9.6°
Reaches altitude 10° 18:00:18 10° 207° (SSW) 2,486 6.8 -10.0°
Maximum altitude 18:06:03 88° 297° (WNW) 863 4.3 -10.9°
Drops below altitude 10° 18:11:47 10° 28° (NNE) 2,489 6.5 -11.8°
Sets 18:14:15 0° 29° (NNE) 3,425 7.2 -12.2°
